Location: Rometta
(44.2000°N, 10.0500°E)
Time: 21:39:28
(UTC+00:00)

Cosmos 1892 Rocket - Pass Details

Date: 20 January 2021
Orbit: 607 x 632 km, 82.5° (Epoch: 03 March)

Event Time Altitude Azimuth Distance (km) Brightness Sun altitude
Rises 16:52:12 0° 168° (SSE) 2,863 7.1 -7.2°
Reaches altitude 10° 16:54:31 10° 160° (SSE) 1,960 6.2 -7.5°
Maximum altitude 16:58:33 39° 92° (E) 919 4.0 -8.2°
Drops below altitude 10° 17:02:36 10° 24° (NNE) 1,968 5.7 -8.9°
Sets 17:04:55 0° 16° (NNE) 2,876 6.6 -9.3°
